Location: Dzierzno
(50.6159°N, 19.2852°E)
Time: 20:14:17
(UTC+00:00)

Cosmos 1782 Rocket - Pass Details

Date: 18 November 2025
Orbit: 599 x 626 km, 82.5° (Epoch: 10 December)

Event Time Altitude Azimuth Distance (km) Brightness Sun altitude
Rises 15:47:11 0° 188° (S) 2,899 7.4 -8.6°
Reaches altitude 10° 15:49:25 10° 188° (S) 1,996 6.6 -9.0°
Maximum altitude 15:53:51 88° 101° (E) 632 3.6 -9.6°
Drops below altitude 10° 15:58:18 10° 11° (N) 2,002 5.9 -10.3°
Sets 16:00:32 0° 11° (N) 2,910 6.7 -10.6°
